User: anonymous   Login
Location: Unspecified
(0.0000°N, 0.0000°E)
Time: 14:02:00
(UTC+00:00)
Language:

VELOX 1 - Orbit

View from above orbital plane
View from above orbital plane
View from above satellite
View from above satellite

Ground track
Ground track

The orbit data is extracted from the following two-line orbital elements,

1 40057U 14034E   18115.00809466  .00000402  00000-0  64055-4 0  9997
2 40057  98.1971 225.1544 0012191 133.5975 226.6239 14.77395236205793
Epoch (UTC): 25 April 2018 00:11:39
Eccentricity: 0.0012191
inclination: 98.1971°
perigee height: 629 km
apogee height: 646 km
right ascension of ascending node: 225.1544°
argument of perigee: 133.5975°
revolutions per day: 14.77395236
mean anomaly at epoch: 226.6239°
orbit number at epoch: 20579

The dashed part of the orbit path shows where the satellite is in the earth's shadow,  

DLR